| time (UTC) | temp F | wind direction | speed knots | gust knots | rain 1hr in | rain 24hr in | rain mn in | humidity % | barometer mb |
| 20260502151606 | 44 | 327 | 3.5 | 12.2 | 0.00 | 0.00 | 0.00 | 59 | 1014.9 |
| 20260502123040 | 37 | 262 | 1.7 | 3.5 | 0.00 | 0.00 | 0.00 | 90 | 1014.4 |
| 20260502121541 | 36 | 285 | 0.9 | 1.7 | 0.00 | 0.00 | 0.00 | 92 | 1014.6 |
| 20260502114547 | 34 | 0 | 0.0 | 0.0 | 0.00 | 0.00 | 0.00 | 93 | 1014.4 |
| 20260502113046 | 34 | 0 | 0.0 | 0.0 | 0.00 | 0.00 | 0.00 | 93 | 1014.4 |
| 20260502111539 | 33 | 0 | 0.0 | 0.0 | 0.00 | 0.00 | 0.00 | 93 | 1014.4 |
| 20260502110047 | 33 | 0 | 0.0 | 1.7 | 0.00 | 0.00 | 0.00 | 93 | 1014.3 |
| 20260502104543 | 33 | 0 | 0.0 | 1.7 | 0.00 | 0.00 | 0.00 | 92 | 1014.4 |
| 20260502103045 | 33 | 0 | 0.0 | 0.0 | 0.00 | 0.00 | 0.00 | 92 | 1014.5 |
| 20260502101601 | 33 | 0 | 0.0 | 0.0 | 0.00 | 0.00 | 0.00 | 92 | 1014.5 |
| 20260502070101 | 38 | 280 | 0.9 | 1.7 | 0.00 | 0.00 | 0.00 | 84 | 1014.4 |
| 20260502064546 | 38 | 275 | 0.9 | 2.6 | 0.00 | 0.00 | 0.00 | 82 | 1014.3 |
| 20260502063045 | 39 | 295 | 1.7 | 3.5 | 0.00 | 0.00 | 0.00 | 81 | 1014.5 |
| 20260502061544 | 39 | 318 | 0.0 | 1.7 | 0.00 | 0.00 | 0.00 | 81 | 1014.6 |
| 20260502060046 | 40 | 306 | 0.9 | 2.6 | 0.00 | 0.00 | 0.00 | 80 | 1015.0 |
| 20260502054557 | 40 | 309 | 0.0 | 1.7 | 0.00 | 0.00 | 0.00 | 79 | 1014.7 |
| 20260502053044 | 40 | 264 | 0.9 | 3.5 | 0.00 | 0.00 | 0.00 | 78 | 1014.9 |
| 20260502051540 | 41 | 351 | 1.7 | 3.5 | 0.00 | 0.00 | 0.00 | 77 | 1014.8 |
| 20260502050038 | 41 | 16 | 0.0 | 1.7 | 0.00 | 0.00 | 0.00 | 78 | 1014.9 |
| 20260502044543 | 41 | 0 | 0.0 | 2.6 | 0.00 | 0.00 | 0.00 | 78 | 1015.0 |
| 20260502043056 | 42 | 32 | 1.7 | 4.3 | 0.00 | 0.00 | 0.00 | 79 | 1014.9 |
| 20260502041608 | 42 | 347 | 2.6 | 7.0 | 0.00 | 0.00 | 0.00 | 78 | 1015.1 |
| 20260502040052 | 43 | 309 | 3.5 | 11.3 | 0.00 | 0.00 | 0.00 | 79 | 1015.0 |
| 20260502034539 | 44 | 290 | 5.2 | 10.4 | 0.00 | 0.00 | 0.00 | 79 | 1015.0 |
| 20260502033043 | 44 | 298 | 2.6 | 7.0 | 0.00 | 0.00 | 0.00 | 77 | 1015.0 |
| 20260502031543 | 45 | 296 | 2.6 | 8.7 | 0.00 | 0.00 | 0.00 | 77 | 1015.0 |
| 20260502030059 | 45 | 269 | 0.9 | 4.3 | 0.00 | 0.00 | 0.00 | 78 | 1014.7 |
| 20260502024546 | 45 | 313 | 2.6 | 7.0 | 0.00 | 0.00 | 0.00 | 78 | 1014.8 |
| 20260502023049 | 45 | 294 | 0.9 | 8.7 | 0.00 | 0.00 | 0.00 | 77 | 1014.9 |
| 20260502021543 | 45 | 321 | 3.5 | 7.0 | 0.00 | 0.00 | 0.00 | 76 | 1014.6 |
| 20260502020041 | 45 | 346 | 0.9 | 3.5 | 0.00 | 0.00 | 0.00 | 74 | 1014.4 |
| 20260502014543 | 46 | 328 | 1.7 | 3.5 | 0.00 | 0.00 | 0.00 | 73 | 1014.4 |
| 20260502013052 | 46 | 250 | 0.9 | 5.2 | 0.00 | 0.00 | 0.00 | 72 | 1014.4 |
| 20260502011554 | 46 | 322 | 3.5 | 7.8 | 0.00 | 0.00 | 0.00 | 71 | 1014.3 |
| 20260502010036 | 46 | 256 | 2.6 | 7.8 | 0.00 | 0.00 | 0.00 | 71 | 1014.2 |
| 20260502004540 | 47 | 307 | 1.7 | 8.7 | 0.00 | 0.00 | 0.00 | 72 | 1014.0 |
| 20260502003039 | 47 | 340 | 5.2 | 8.7 | 0.00 | 0.00 | 0.00 | 73 | 1013.7 |
| 20260502001543 | 48 | 309 | 3.5 | 7.8 | 0.00 | 0.00 | 0.00 | 74 | 1013.1 |
| 20260502000056 | 48 | 344 | 5.2 | 8.7 | 0.00 | 0.00 | 0.00 | 75 | 1012.5 |
| 20260501234538 | 49 | 308 | 3.5 | 8.7 | 0.00 | 0.00 | 0.00 | 74 | 1012.3 |
| 20260501233043 | 49 | 317 | 4.3 | 10.4 | 0.00 | 0.00 | 0.00 | 75 | 1012.0 |
| 20260501231545 | 50 | 283 | 3.5 | 11.3 | 0.00 | 0.00 | 0.00 | 72 | 1012.3 |
| 20260501230109 | 51 | 348 | 4.3 | 10.4 | 0.00 | 0.00 | 0.00 | 70 | 1011.9 |
| 20260501224554 | 52 | 355 | 4.3 | 11.3 | 0.00 | 0.00 | 0.00 | 68 | 1011.6 |
| 20260501223040 | 53 | 300 | 5.2 | 13.9 | 0.00 | 0.00 | 0.00 | 62 | 1011.4 |
| 20260501221541 | 54 | 321 | 5.2 | 11.3 | 0.00 | 0.00 | 0.00 | 57 | 1011.2 |
| 20260501220044 | 55 | 286 | 4.3 | 11.3 | 0.00 | 0.00 | 0.00 | 51 | 1010.9 |
| 20260501214542 | 56 | 325 | 6.1 | 13.0 | 0.00 | 0.00 | 0.00 | 49 | 1010.8 |
| 20260501213038 | 56 | 326 | 6.1 | 14.8 | 0.00 | 0.00 | 0.00 | 48 | 1010.9 |
| 20260501211538 | 58 | 331 | 6.1 | 14.8 | 0.00 | 0.00 | 0.00 | 44 | 1010.5 |
| 20260501210044 | 59 | 211 | 7.0 | 18.2 | 0.00 | 0.00 | 0.00 | 40 | 1010.5 |
| 20260501204544 | 60 | 282 | 8.7 | 13.0 | 0.00 | 0.00 | 0.00 | 34 | 1010.2 |
| 20260501203043 | 61 | 271 | 7.0 | 18.2 | 0.00 | 0.00 | 0.00 | 34 | 1009.9 |
| 20260501201543 | 62 | 227 | 5.2 | 16.5 | 0.00 | 0.00 | 0.00 | 36 | 1009.8 |
| 20260501200038 | 61 | 265 | 7.0 | 14.8 | 0.00 | 0.00 | 0.00 | 34 | 1010.1 |
| 20260501194538 | 62 | 254 | 10.4 | 15.6 | 0.00 | 0.00 | 0.00 | 31 | 1010.1 |
| 20260501193043 | 60 | 271 | 6.1 | 13.0 | 0.00 | 0.00 | 0.00 | 34 | 1010.3 |
| 20260501191542 | 61 | 272 | 7.0 | 13.9 | 0.00 | 0.00 | 0.00 | 33 | 1010.3 |
| 20260501190043 | 61 | 259 | 9.6 | 14.8 | 0.00 | 0.00 | 0.00 | 36 | 1010.4 |
| 20260501184543 | 61 | 253 | 5.2 | 17.4 | 0.00 | 0.00 | 0.00 | 37 | 1010.4 |
| 20260501183038 | 61 | 232 | 7.8 | 17.4 | 0.00 | 0.00 | 0.00 | 36 | 1010.6 |
| 20260501181537 | 60 | 271 | 4.3 | 11.3 | 0.00 | 0.00 | 0.00 | 35 | 1010.8 |
| 20260501180040 | 60 | 238 | 6.1 | 16.5 | 0.00 | 0.00 | 0.00 | 33 | 1011.0 |
| 20260501174540 | 59 | 253 | 7.0 | 12.2 | 0.00 | 0.00 | 0.00 | 32 | 1011.1 |
| 20260501173058 | 59 | 235 | 4.3 | 17.4 | 0.00 | 0.00 | 0.00 | 34 | 1011.0 |
| 20260501171538 | 60 | 231 | 7.8 | 15.6 | 0.00 | 0.00 | 0.00 | 35 | 1011.2 |
| 20260501170040 | 59 | 208 | 5.2 | 18.2 | 0.00 | 0.00 | 0.00 | 35 | 1011.4 |
| 20260501164602 | 57 | 225 | 7.0 | 15.6 | 0.00 | 0.00 | 0.00 | 36 | 1011.7 |
| 20260501163041 | 58 | 229 | 3.5 | 9.6 | 0.00 | 0.00 | 0.00 | 33 | 1011.7 |
| 20260501161543 | 57 | 207 | 3.5 | 13.9 | 0.00 | 0.00 | 0.00 | 34 | 1011.9 |
| 20260501160041 | 57 | 247 | 2.6 | 9.6 | 0.00 | 0.00 | 0.00 | 35 | 1012.0 |